Location: Ellingshausen
(50.5460°N, 10.4723°E)
Time: 00:35:29
(UTC+00:00)

Cosmos 2184 Rocket - Pass Details

Date: 18 January 2026
Orbit: 958 x 1001 km, 82.9° (Epoch: 9 February)

Event Time Altitude Azimuth Distance (km) Brightness Sun altitude
Rises 04:52:26 0° 194° (SSW) 3,648 6.9 -21.4°
Reaches altitude 10° 04:54:56 10° 196° (SSW) 2,700 6.2 -21.0°
Maximum altitude 05:01:06 74° 281° (W) 1,004 3.8 -20.0°
Drops below altitude 10° 05:07:18 10° 7° (N) 2,704 6.3 -19.0°
Sets 05:09:49 0° 9° (N) 3,653 7.0 -18.6°
